Погода в Верхней Мануйловке

Украина / Полтавская область     49°20′43″N   33°43′37″E
темп.,
°C
ветер,
м/с
пор.,
м/с
влажн.,
%
обл.,
%
осадки,
мм/ч
давл.,
гПа
погр.,
м
15 мая, сб
сб1500:00+13ююз38845 0.0 1009122
03:00+11ю39875 0.0 1010163
06:00+12ююз39865 0.0 1010233
09:00+18ююз46661 0.0 1011586
12:00+22юз685211 0.7 10112072
15:00+20зюз3661100 0.7 1011313
18:00+19юв0066100 0.0 101211
21:00+16ю007593 0.0 101211
16 мая, вс
вс1600:00+14с117579 0.0 101211
03:00+15юв11721 0.0 101311
06:00+13с22811 0.0 101317
09:00+19св3365100 0.0 1013394
12:00+23в2348100 0.0 10131480
15:00+24в344385 0.0 10111965
18:00+24всв355310 0.0 1010942
21:00+18св45679 0.0 100966
17 мая, пн
пн1700:00+17св51372100 0.0 1007258
03:00+16св4887100 0.1 1006176
06:00+15св3789100 0.0 1004161
09:00+19вюв357298 0.0 1003356
12:00+24ююв4562100 0.0 1002975
15:00+25юв675658 0.1 10011644
18:00+24ю69695 0.3 10011058
21:00+17ююв410911 1.3 1003255
18 мая, вт
вт1800:00+15юз5995100 0.1 1005484
03:00+12ююз3696100 0.0 1007144
06:00+13ююв37955 0.4 1007239
09:00+18ююз577740 0.6 1007768
12:00+21ююз456277 1.1 10071309
15:00+23з4548100 1.4 10051862
18:00+14сз3596100 11.1 1007268
21:00+13зсз2395100 16.8 1008141
19 мая, ср
ср1900:00+14з599575 0.0 1009395
03:00+12з5109348 0.0 1010409
06:00+11зюз389525 0.0 1011220
09:00+16з4573100 0.0 1012699
12:00+19з4557100 0.0 10121349
15:00+19зюз335099 0.0 10121364
18:00+20вюв135392 0.0 10111227
21:00+14ю2380100 0.1 101163